Simultaneous Nadir Overpasses (SNOs) Predictions

Prediction of SNOs over PacNW region [( 10.00, 139.50) to ( 22.70, 165.60)] between AQUA and NPP Satellites:

Table of predicted SNOs over PacNW region for the next 30.0 days since TLE Epoch: 2/16/2018
Index Date (AQUA) Time (AQUA) AQUA Lat,Lon Date (NPP) Time (NPP) NPP Lat,Lon Distance(km) Time Diff (sec)
1 02/20/2018 15:10:26 22.62, 159.86 02/20/2018 15:10:42 23.16, 157.29 270.26 16
2 02/28/2018 15:59:57 22.59, 147.50 02/28/2018 16:01:19 23.21, 144.64 300.45 82
3 03/08/2018 15:10:37 22.44, 159.83 03/08/2018 15:10:33 22.90, 157.28 266.49 4




NCC Satellite Simultaneous Nadir Overpasses (SNOs) Prediction Service
